Probability
0 0 0 0 0 0 0 0 0 0 0 0 0 0 0 0 0 0 0 0 0 0 0 0 0 0 0 0 0 0 0 0 0 0 0 0 0 0 0 0 0 0 0 0 0 0 0 0 0
0 0 0 0 0 0 0 0 0 1 1 1 0 0 0 0 0 0 0 0 0 0 0 0 0 0 0 1 1 1 0 0 0 0 0 0 0 0 0 0 0 0 0 0 0 0 0 0 0
0 0 0 0 0 0 0 0 0 1 2 1 0 0 0 0 0 0 0 0 0 0 0 0 0 0 1 2 2 2 1 1 1 1 0 0 0 0 0 0 0 0 0 0 0 0 0 0 0
0 0 0 0 0 0 0 0 1 1 2 1 0 0 0 0 0 0 0 0 0 0 0 0 0 0 1 2 3 2 2 2 2 1 0 0 0 0 0 0 0 0 0 0 0 0 0 0 0
0 0 0 0 0 0 0 1 3 2 1 0 0 0 0 0 0 0 0 0 0 0 0 0 0 0 1 2 2 1 2 2 2 1 0 0 0 0 0 0 0 0 0 0 0 0 0 0 0
0 0 0 0 0 0 1 4 7 7 3 1 0 0 0 1 0 0 0 0 0 0 0 0 0 0 1 2 2 2 2 2 1 1 1 1 0 0 0 0 1 1 0 0 0 0 0 0 0
0 0 0 0 0 1 2 6 11 13 9 5 3 1 2 4 2 0 0 0 0 0 0 0 0 0 1 1 1 2 3 4 4 4 5 4 1 0 1 1 2 2 1 1 1 1 0 0 0
0 0 0 0 1 3 4 6 10 15 16 13 11 10 12 13 9 5 3 2 1 0 0 0 0 0 0 0 1 3 4 5 6 6 7 6 4 2 2 3 4 4 3 3 2 2 1 0 0
0 0 0 1 3 5 5 6 8 12 18 21 23 27 30 27 19 12 10 7 4 2 1 0 0 0 0 1 3 5 5 4 5 6 7 8 7 5 6 9 10 8 6 4 3 3 3 2 2
0 0 0 1 3 5 5 6 6 9 18 28 34 41 44 38 25 16 12 10 7 4 2 1 0 1 1 3 5 8 9 8 9 11 14 16 16 14 15 19 19 14 8 6 7 7 6 7 8
0 0 0 1 2 3 4 6 9 15 26 36 41 45 46 40 30 19 15 12 8 5 3 2 1 2 3 4 5 9 14 17 20 23 25 27 26 22 22 25 25 19 15 15 17 16 12 12 16
0 0 0 0 1 2 3 6 14 27 40 46 46 47 46 43 37 31 24 17 10 6 4 2 2 4 6 7 8 10 16 21 25 27 28 29 29 26 23 26 26 23 22 25 26 24 18 18 21
0 0 0 0 0 1 1 5 16 32 45 48 48 49 51 49 46 43 36 27 18 12 7 5 6 8 10 14 15 14 16 19 20 20 20 22 24 23 22 25 26 23 23 24 25 23 22 23 24
0 0 0 0 0 0 0 4 14 28 38 42 46 50 52 49 45 43 40 34 26 18 13 11 12 13 15 19 20 16 14 15 13 12 12 14 16 17 17 20 22 20 19 20 19 19 21 23 25
0 0 0 0 0 0 0 3 11 21 29 36 42 47 46 40 34 32 32 31 27 22 18 16 15 17 18 18 17 13 11 10 9 8 7 8 8 9 9 11 13 13 13 15 15 15 18 21 24
0 0 0 0 0 0 0 3 8 14 22 30 35 37 36 29 22 19 20 22 22 21 20 17 15 18 19 17 14 11 8 8 8 7 6 5 4 3 3 5 6 6 7 8 10 11 12 15 17
0 0 0 0 0 0 0 2 5 8 15 23 26 27 26 21 16 13 15 17 17 17 17 16 16 17 16 13 11 9 8 8 7 6 5 4 2 1 2 3 3 3 3 4 4 5 6 8 8
0 0 0 0 0 0 0 1 2 5 11 17 21 20 16 14 12 11 12 12 12 12 12 11 12 12 9 6 5 6 6 5 3 3 3 2 2 2 2 2 2 2 2 1 1 1 2 2 3
0 0 0 0 0 0 0 0 1 5 10 14 15 13 10 8 9 9 8 8 8 7 6 5 5 5 3 2 2 1 1 1 0 0 1 1 1 1 1 1 1 1 1 0 0 0 0 1 1
0 0 0 0 0 0 0 0 2 6 9 9 8 7 5 5 7 7 5 4 4 3 2 1 1 1 1 1 1 0 0 0 0 0 0 0 0 0 0 0 0 0 0 0 0 0 0 0 0
0 0 0 0 0 0 0 0 1 4 6 5 4 4 4 4 4 4 3 3 2 2 1 1 1 1 2 2 1 0 0 1 1 0 0 0 0 0 0 0 0 0 0 0 0 0 0 0 0
0 0 0 0 0 0 0 0 0 1 3 3 3 3 3 3 2 1 1 1 1 1 1 2 5 7 8 6 4 2 1 2 1 0 0 0 0 0 0 0 0 0 0 0 0 0 0 0 0
0 0 0 0 0 0 0 0 0 0 1 2 2 1 1 1 1 0 0 0 0 1 1 5 11 17 17 13 9 6 3 3 2 0 0 0 0 0 0 0 0 0 0 0 0 0 0 0 0
0 0 0 0 0 0 0 0 0 0 0 1 1 0 0 0 0 0 0 0 0 1 3 7 14 21 19 14 10 7 4 2 1 0 0 0 0 0 0 0 0 0 0 0 0 0 0 0 0
0 0 0 0 0 0 0 0 0 0 0 0 0 0 0 0 0 0 0 0 1 2 4 8 12 15 13 9 6 3 2 1 1 0 0 0 0 0 0 0 0 0 0 0 0 0 0 0 0
0 0 0 0 0 0 0 0 0 0 0 0 0 0 0 0 0 0 0 1 2 3 5 7 9 8 6 4 2 1 0 0 0 0 0 0 0 0 0 0 0 0 0 0 0 0 0 0 0
0 0 0 0 0 0 0 0 0 0 0 0 0 0 0 0 0 0 0 1 3 5 6 6 6 5 3 2 1 0 0 0 0 0 0 0 0 0 0 0 0 0 0 0 0 0 0 0 0
0 0 0 0 0 0 0 0 0 0 0 0 0 0 0 0 0 0 0 1 3 4 5 4 4 3 3 1 0 0 0 0 0 0 0 0 0 0 0 0 0 0 0 0 0 0 0 0 0
0 0 0 0 0 0 0 0 0 0 0 0 0 0 0 0 0 0 1 2 2 2 2 2 2 2 2 1 0 0 0 0 0 0 0 0 0 0 0 0 0 0 0 0 0 0 0 0 0
0 0 0 0 0 0 0 0 0 0 0 0 0 0 0 0 0 1 2 2 1 0 0 1 1 1 1 0 0 0 0 0 0 0 0 0 0 0 0 0 0 0 0 0 0 0 0 0 0
Wind_Speed
12 10 7 6 7 6 3 6 5 5 5 7 8 6 7 9 7 8 8 12 15 16 17 16 13 12 11 11 11 11 11 11 11 11 10 10 9 9 8 7 6 5 5 5 5 5 5 6 6
10 8 7 6 7 2 5 6 7 6 3 3 5 6 7 9 9 9 9 13 16 16 16 15 14 12 12 11 11 11 11 11 10 10 9 9 8 8 7 6 6 5 4 4 4 4 5 5 6
9 8 7 6 3 3 5 7 6 4 3 2 4 6 6 8 7 6 10 16 16 14 14 15 15 13 12 11 11 11 11 10 10 9 8 8 7 7 6 5 5 4 4 4 4 4 4 4 4
6 7 6 7 1 4 5 6 4 3 5 5 6 8 8 8 5 8 14 16 16 14 14 16 14 13 12 12 11 11 10 10 9 8 7 7 6 5 5 4 4 4 4 4 4 4 4 4 4
7 6 8 7 1 3 4 5 3 3 4 6 6 9 9 7 7 12 13 15 15 14 13 16 14 13 12 11 11 11 10 9 9 8 7 6 5 5 5 4 4 4 3 4 4 4 4 4 4
6 6 9 5 2 3 5 5 4 7 8 7 7 9 9 6 8 10 11 12 13 13 12 14 13 12 11 11 10 10 9 9 8 8 7 6 6 5 5 5 5 4 4 4 4 5 5 6 5
7 7 8 5 1 3 6 5 5 5 6 5 5 7 10 10 9 9 9 9 11 11 11 11 13 11 10 9 9 9 8 8 7 7 6 6 6 6 6 6 6 6 6 6 6 6 6 7 7
5 7 8 6 4 3 5 4 5 3 6 5 2 6 10 12 11 10 9 8 9 9 9 9 9 9 9 9 9 7 6 6 6 6 6 5 6 8 7 8 7 6 6 6 6 7 8 8 8
6 8 6 3 2 1 4 2 4 3 6 5 6 8 14 17 14 12 11 10 9 8 7 7 8 7 6 6 8 8 7 6 6 7 6 6 6 6 7 6 3 5 6 7 7 7 8 9 10
6 7 3 3 5 5 4 2 1 5 7 8 10 13 16 15 13 13 12 12 11 9 8 6 5 5 4 3 4 4 4 4 4 3 4 4 3 3 5 2 2 4 6 8 8 8 9 10 8
6 6 5 4 5 6 5 1 2 5 6 6 11 14 14 14 12 12 11 11 10 9 8 7 5 5 4 2 2 1 1 1 2 2 3 2 2 3 4 2 3 4 6 6 6 7 6 7 6
6 5 6 7 7 6 4 2 3 1 6 7 10 13 13 12 11 11 10 10 9 8 7 6 6 4 2 1 0 0 0 1 1 0 2 2 2 3 3 3 3 3 2 4 5 4 6 7 8
7 6 5 5 5 3 3 3 3 6 8 9 10 10 10 10 9 8 9 9 9 8 7 5 4 4 3 2 1 0 0 1 1 1 1 2 2 2 2 2 2 3 3 4 4 5 6 7 8
4 5 5 4 2 2 4 5 5 6 7 9 9 9 8 8 8 8 8 8 8 7 6 6 5 5 4 3 2 1 1 1 1 2 3 2 2 2 2 2 2 3 3 3 4 5 6 6 6
6 7 6 4 3 4 6 7 5 7 7 8 8 7 7 6 6 6 7 8 8 7 6 6 5 5 4 4 3 2 2 2 2 2 2 2 2 2 2 2 2 2 3 3 4 5 5 6 6
8 8 5 6 4 5 10 6 10 7 7 7 7 7 6 5 5 5 6 6 6 7 7 6 5 5 5 3 2 2 2 2 1 1 1 2 2 2 3 3 3 3 4 4 4 5 5 5 6
8 4 2 5 3 4 8 3 9 7 7 7 6 6 7 6 6 6 6 7 6 6 6 6 5 5 4 4 3 2 2 1 1 1 2 2 2 3 4 3 3 5 5 4 5 4 5 6 6
5 5 3 0 3 5 6 3 8 7 7 7 7 7 7 7 7 7 6 7 6 6 6 6 6 5 4 4 3 2 2 1 0 1 2 2 3 3 5 5 3 6 6 5 4 5 5 6 6
8 7 4 2 1 4 5 4 7 8 7 7 7 7 7 7 8 8 7 7 7 6 6 6 6 5 4 3 3 2 2 1 1 0 2 2 3 4 4 6 4 5 6 6 7 6 7 7 5
7 6 3 3 2 4 4 4 5 7 8 6 6 7 8 8 9 8 8 8 8 7 7 6 6 6 5 3 2 1 2 2 2 2 1 2 3 4 4 4 6 5 5 6 6 6 7 7 5
5 5 4 1 4 4 5 7 7 7 7 8 8 7 8 9 10 10 10 10 9 8 8 7 6 6 5 4 3 3 3 4 4 3 2 2 4 4 5 5 6 6 8 6 6 7 8 7 7
3 2 2 4 6 2 4 2 7 8 9 10 10 10 10 11 11 10 10 10 10 9 8 8 7 6 5 6 5 5 5 6 5 4 4 4 5 5 5 6 6 6 7 6 8 6 6 7 8
2 1 3 5 5 3 2 4 5 7 8 11 12 12 12 11 11 10 10 10 9 9 8 8 7 7 6 6 5 6 6 5 5 5 5 6 5 5 6 6 6 6 7 6 7 7 8 7 8
5 5 6 7 7 2 2 4 3 5 6 9 12 12 11 11 11 10 9 9 9 8 8 8 7 6 6 6 6 6 6 6 7 7 7 6 5 5 5 6 6 7 7 6 7 7 8 8 8
7 7 4 4 2 3 2 4 4 5 5 7 10 12 12 11 10 10 10 9 9 8 8 6 6 6 6 6 5 5 5 6 7 7 6 7 6 6 5 6 6 7 6 7 8 7 8 8 8
4 7 5 6 6 3 4 2 5 6 6 7 8 10 10 10 10 10 9 8 8 7 7 6 6 5 5 5 4 4 5 6 6 5 7 8 7 7 7 7 8 8 8 8 7 8 8 7 8
3 4 5 6 4 3 2 1 5 7 8 9 10 10 11 10 10 9 8 7 7 7 6 5 5 5 4 4 4 5 5 6 6 7 8 7 6 7 8 8 8 8 8 8 8 8 8 8 9
5 3 3 6 5 4 1 1 2 7 9 10 11 11 11 10 9 8 8 8 7 6 6 5 5 4 4 4 5 4 5 6 6 8 8 8 8 8 9 9 9 9 9 9 9 10 9 9 10
5 5 5 5 5 7 4 3 5 3 6 9 10 10 10 10 9 9 8 8 8 7 7 6 5 5 4 5 5 5 6 7 7 7 8 8 8 8 9 10 10 10 10 10 10 11 10 11 11
5 4 5 6 4 5 7 2 7 3 5 7 7 8 9 8 8 9 9 9 8 7 6 6 5 5 5 5 5 6 6 7 8 9 8 9 9 9 10 10 10 11 11 10 11 12 11 11 12
Wind_Direction
175 188 214 235 238 223 68 50 14 9 42 49 42 38 45 34 13 65 109 140 138 141 138 145 143 141 138 133 127 125 126 130 134 136 139 141 143 144 145 146 145 144 136 121 111 106 105 105 107
176 191 220 238 259 204 88 40 20 24 60 88 74 67 71 67 54 92 131 138 145 142 143 147 141 142 140 136 132 129 127 127 130 132 134 137 141 145 149 152 154 154 146 134 124 116 112 112 115
176 218 251 250 264 349 36 28 16 38 83 97 85 61 53 61 82 106 130 146 146 140 141 137 146 146 144 141 138 134 132 131 132 134 136 140 144 151 158 163 167 169 165 155 144 131 126 126 127
198 218 235 250 255 41 8 360 349 147 107 88 109 93 83 43 33 107 136 148 144 144 148 139 151 149 148 146 144 141 138 137 137 139 143 148 155 163 172 177 179 184 183 176 167 153 150 151 151
233 251 243 231 178 55 21 7 349 129 97 96 104 101 88 52 75 118 140 149 150 150 146 142 153 152 152 152 150 148 147 148 149 152 156 163 171 183 193 199 199 207 209 201 196 185 175 179 181
232 247 253 240 123 77 50 41 70 96 107 105 104 105 88 87 103 123 140 153 152 150 148 139 151 155 156 157 156 155 156 159 162 167 171 178 185 198 211 220 222 228 229 225 222 212 200 199 202
267 264 268 270 211 109 52 44 65 100 107 90 105 113 116 118 113 123 133 148 150 151 147 150 157 159 160 160 162 163 165 169 173 178 185 195 205 213 221 229 231 238 240 237 235 230 222 214 213
282 268 249 239 228 108 58 53 63 72 94 85 103 125 134 130 129 127 130 142 150 153 152 155 158 159 169 170 167 171 175 179 183 192 201 212 223 226 227 233 225 240 248 248 244 240 234 227 223
256 254 248 246 256 65 41 34 78 90 101 86 65 73 110 128 135 136 139 146 152 153 153 164 154 160 175 174 156 178 183 190 202 202 202 221 239 237 220 230 211 243 255 258 256 254 245 238 228
244 258 286 344 315 323 340 335 96 156 128 111 101 100 119 135 146 148 152 156 159 161 165 160 165 155 182 180 161 194 197 180 222 236 228 231 241 269 275 142 205 252 262 264 257 257 251 243 237
246 280 325 310 308 309 292 251 197 193 137 129 135 136 139 143 152 156 156 159 160 167 171 162 164 165 186 176 191 192 216 167 224 240 263 269 275 263 271 272 230 239 247 261 252 245 247 247 247
258 275 289 298 313 294 277 213 162 64 80 105 131 141 146 153 156 157 156 160 162 171 168 161 160 165 171 186 214 230 300 272 280 264 292 291 283 279 282 277 284 278 275 270 275 270 264 261 256
248 279 291 295 289 291 240 185 129 102 103 114 125 140 147 147 147 148 151 158 162 167 165 157 160 160 164 168 254 55 315 298 316 346 16 330 296 288 290 289 286 278 271 264 272 277 275 269 257
300 288 283 277 267 211 184 154 151 114 126 130 136 140 143 142 146 149 154 157 161 163 157 156 161 156 158 154 150 147 128 104 31 34 40 7 335 335 302 275 293 293 288 300 290 284 280 276 271
270 263 234 189 195 175 191 173 138 125 140 139 135 134 135 137 149 157 155 157 157 157 157 157 158 154 153 152 153 139 110 82 60 59 53 26 4 3 319 307 283 306 297 283 275 281 275 269 268
241 242 222 137 184 175 234 178 128 143 155 148 142 142 141 141 155 157 155 154 153 157 156 160 154 142 144 138 139 113 81 82 64 42 45 34 10 329 304 302 310 321 292 288 287 277 287 285 281
215 257 307 134 167 196 241 154 131 162 168 157 156 151 150 154 160 157 156 155 155 154 154 154 144 145 144 143 150 129 111 90 72 42 27 24 336 318 299 307 326 293 286 288 291 301 297 293 288
336 316 301 181 130 222 235 163 144 174 183 170 167 163 162 165 163 157 157 153 154 156 159 156 156 149 158 162 161 157 153 157 113 40 41 347 324 323 310 291 308 298 289 288 293 299 285 287 287
304 299 308 43 96 238 230 201 170 180 195 188 180 171 172 169 163 163 166 167 167 168 171 174 174 164 183 190 208 205 208 224 244 301 35 334 331 331 309 308 311 293 292 297 292 288 280 272 288
270 276 272 134 163 248 216 206 179 191 199 197 189 181 181 176 173 177 182 183 185 182 184 188 191 189 204 197 233 270 298 275 290 305 302 307 318 310 299 318 300 302 297 276 279 275 287 290 281
270 293 306 249 169 202 232 195 181 186 195 196 200 194 189 189 186 187 191 192 193 194 196 199 200 202 213 213 225 223 229 247 249 266 266 302 303 301 311 305 304 309 291 290 291 280 270 283 285
297 12 257 208 228 173 262 265 158 181 192 197 198 198 198 196 196 194 194 199 202 203 202 205 208 211 212 220 240 256 275 290 308 302 307 301 286 294 297 297 295 295 295 295 280 282 284 273 276
27 130 219 225 250 246 223 287 118 169 197 198 196 196 199 197 199 200 204 207 210 209 209 207 209 213 214 228 236 252 269 287 292 296 289 287 288 283 289 293 295 291 286 295 299 297 282 276 273
149 184 199 221 238 245 40 297 110 151 188 185 188 193 197 198 202 205 209 210 213 213 213 212 209 215 215 223 235 253 277 288 296 294 297 290 290 286 287 287 287 282 287 289 281 282 272 273 280
220 255 251 231 231 67 92 280 65 119 165 180 182 187 194 199 202 204 208 210 211 212 212 211 207 211 213 222 237 252 270 278 276 284 292 294 296 294 298 299 290 285 283 279 279 273 277 273 269
241 286 319 330 346 37 157 322 92 138 161 182 189 188 190 196 200 204 207 208 206 202 196 198 202 210 213 223 238 256 266 273 285 292 299 297 296 301 310 293 282 279 277 275 273 274 267 264 265
234 262 330 294 285 293 68 80 145 161 181 187 189 191 192 193 193 195 191 189 185 184 182 186 189 200 212 230 243 256 265 280 291 290 276 283 291 291 291 288 283 278 274 272 272 269 272 270 265
306 291 253 290 321 318 38 65 86 172 185 185 190 193 190 186 187 181 174 173 170 170 167 174 187 204 224 238 254 266 269 272 277 283 294 294 292 290 288 284 282 278 274 267 264 268 261 262 262
187 212 260 285 313 310 328 43 83 165 188 192 194 195 191 190 184 173 168 164 165 170 173 183 195 214 236 256 262 273 275 280 282 281 282 285 287 289 284 284 283 280 276 271 265 266 271 265 264
259 261 242 275 280 278 297 5 120 170 195 199 199 189 189 188 177 170 167 168 175 183 189 199 214 233 252 262 265 269 275 279 281 285 288 286 284 283 283 283 281 278 276 272 268 266 267 266 265